星链-5994 (STARLINK-5994 )

导读

STARLINK-5994是美国太空探索技术公司 SpaceX 星链互联网卫星星座的一员,于2023年5月10日发射,旨在提供全球覆盖的低延迟、高速卫星互联网服务。它运行在近地轨道,通过星链星座组网,为偏远地区、海上及航空等场景提供网络连接,也补充了全球通信覆盖能力。

Basic Information
目录编号:
56457
目录名称:
STARLINK-5994
国际标识:
2023-064K
轨道中心:
EARTH
卫星名称:
星链-5994
卫星全名:
星链-5994 (STARLINK-5994 )
卫星状态:
在轨 (已飞行1132 天)
发射日期:
2023-05-10 UTC
国别 :
美国 (US)
星等 :
--
Orbit Information
数据来源 国际轨道数据 AOE轨道数据
星历时间 2026-06-14T21:05:29+0800
11小时前
查看轨道信息
2026-06-13T05:00:00+0800
2天前
查看轨道信息
半长轴 6950.188km 6950.158km
偏心率 0.0003274 0.0003177
轨道倾角 69.999° 69.998°
近地点辐角 268.956° 271.515°
升交点赤经 260.263° 264.473°
平近点角 91.123° 80.644°
近地点 569.775km 569.812km
远地点 574.327km 574.23km
周期 96.107分钟 96.106分钟
每日圈数 14.983316 14.983414
Detailed Information
固有亮度:
5
最大亮度:
2.5
卫星平台:
Starlink v1.5
覆盖范围:
全球
运营商:
太空探索技术公司
运营商所在国:
美国
制造商(研发单位):
太空探索技术公司
制造商所在国:
美国
使用方式:
暂无
Satellite Introduction
星链(Starlink)计划是由太空探索技术公司(SpaceX)提出的一个巨型低轨卫星互联网星座项目,计划在2019年至2024年间在太空搭建由约1.2万颗卫星组成的“星链”网络,其中1584颗将部署在地球上空550千米处的近地轨道,并从2020年开始工作。该卫星仍在工作。
2D Orbit Map
3D Orbit Map
Orbit Altitude Analysis Chart
Orbit Inclination Analysis Chart
Orbit Comprehensive Analysis Chart
View Comprehensive Chart